This is the latest recevied weather packets stored in our database for station/object IR9AK-10. If no packets are shown the sender has not sent any weather packets the latest 1 day(s).
| Time | Temp. | Humidity | Pressure | Rain* | Wind** | Luminosity | Snow |
|---|---|---|---|---|---|---|---|
| 1788618699 | 47.22° C | 27% | 1063.3 hPa | - | - | - | - |
| 1788618101 | 41.67° C | 34% | 1063.5 hPa | - | - | - | - |
| 1788617503 | 41.67° C | 34% | 1063.5 hPa | - | - | - | - |
| 1788616904 | 41.67° C | 34% | 1063.6 hPa | - | - | - | - |
| 1788616305 | 41.11° C | 35% | 1063.7 hPa | - | - | - | - |
| 1788615706 | 41.11° C | 35% | 1063.7 hPa | - | - | - | - |
| 1788615106 | 40.56° C | 36% | 1063.7 hPa | - | - | - | - |
| 1788614543 | 41.11° C | 35% | 1063.9 hPa | - | - | - | - |
| 1788614506 | 41.11° C | 35% | 1063.9 hPa | - | - | - | - |
| 1788613906 | 41.11° C | 36% | 1063.9 hPa | - | - | - | - |
| 1788613307 | 40.56° C | 37% | 1064.1 hPa | - | - | - | - |
| 1788612707 | 40.56° C | 37% | 1064 hPa | - | - | - | - |
| 1788612107 | 40° C | 37% | 1064.2 hPa | - | - | - | - |
| 1788611541 | 40.56° C | 38% | 1064.2 hPa | - | - | - | - |
| 1788611509 | 40.56° C | 38% | 1064.2 hPa | - | - | - | - |
| 1788610947 | 40.56° C | 38% | 1064.2 hPa | - | - | - | - |
| 1788610909 | 40.56° C | 38% | 1064.2 hPa | - | - | - | - |
| 1788610310 | 40.56° C | 38% | 1064.1 hPa | - | - | - | - |
| 1788609711 | 40.56° C | 37% | 1064.2 hPa | - | - | - | - |
| 1788609182 | 40.56° C | 38% | 1064.2 hPa | - | - | - | - |
| 1788609111 | 40.56° C | 38% | 1064.2 hPa | - | - | - | - |
| 1788608512 | 40.56° C | 36% | 1064.3 hPa | - | - | - | - |
| 1788607914 | 40.56° C | 36% | 1064.3 hPa | - | - | - | - |
| 1788607316 | 41.11° C | 37% | 1064.3 hPa | - | - | - | - |
| 1788606716 | 40.56° C | 37% | 1064.3 hPa | - | - | - | - |
* Rain since midnight (hover to see other rain measurements)
** Current wind speed in m/s (hover to see current wind gust speed)